When you browse on this site, cookies collect data to enhance your experience and personalize the content and advertising you see.
Visit our Privacy Policy to learn more. By continuing to use the site, you agree to this use of cookies and data.
  • In Lithuania
  • List of Countries
  • For 7 days
  • Water Temperature
  • Weather Map
  • Weather Widgets
  • user-avatar
    Login

    Hourly Weather Asadabad

    Today, 10 December, Tuesday

    Time Temperature Precipitation Wind Pressure Humidity
    00:00 +8°C° 0 mm 2 mps 658 mmHg 26%
    01:00 +8°C° 0 mm 2 mps 658 mmHg 25%
    02:00 +8°C° 0 mm 2 mps 658 mmHg 25%
    03:00 +8°C° 0 mm 2 mps 657 mmHg 25%
    04:00 +7°C° 0 mm 2 mps 657 mmHg 25%
    05:00 +7°C° 0 mm 2 mps 657 mmHg 25%
    06:00 +8°C° 0 mm 2 mps 657 mmHg 26%
    07:00 +8°C° 0 mm 2 mps 657 mmHg 27%
    08:00 +8°C° 0 mm 2 mps 657 mmHg 27%
    09:00 +10°C° 0 mm 2 mps 658 mmHg 24%
    10:00 +13°C° 0 mm 2 mps 658 mmHg 20%
    11:00 +15°C° 0 mm 1 mps 658 mmHg 17%
    12:00 +15°C° 0 mm 1 mps 658 mmHg 17%
    13:00 +16°C° 0 mm 1 mps 658 mmHg 16%
    14:00 +16°C° 0 mm 1 mps 657 mmHg 16%
    15:00 +15°C° 0 mm 1 mps 656 mmHg 21%
    16:00 +13°C° 0 mm 1 mps 656 mmHg 27%
    17:00 +12°C° 0 mm 1 mps 655 mmHg 32%
    18:00 +12°C° 0 mm 1 mps 655 mmHg 32%
    19:00 +12°C° 0 mm 1 mps 656 mmHg 32%
    20:00 +12°C° 0 mm 1 mps 656 mmHg 32%
    21:00 +11°C° 0 mm 1 mps 656 mmHg 34%
    22:00 +11°C° 0 mm 1 mps 656 mmHg 35%
    23:00 +10°C° 0 mm 1 mps 656 mmHg 36%

    Tomorrow, 11 December, Wednesday

    Time Temperature Precipitation Wind Pressure Humidity
    00:00 +10°C° 0 mm 1 mps 656 mmHg 37%
    01:00 +10°C° 0 mm 1 mps 656 mmHg 39%
    02:00 +9°C° 0 mm 1 mps 656 mmHg 40%
    03:00 +9°C° 0 mm 1 mps 655 mmHg 43%
    04:00 +8°C° 0 mm 1 mps 655 mmHg 46%
    05:00 +7°C° 0 mm 1 mps 655 mmHg 50%
    06:00 +7°C° 0 mm 1 mps 655 mmHg 50%
    07:00 +7°C° 0 mm 1 mps 656 mmHg 50%
    08:00 +8°C° 0 mm 1 mps 656 mmHg 50%
    09:00 +9°C° 0 mm 1 mps 656 mmHg 45%
    10:00 +11°C° 0 mm 1 mps 657 mmHg 40%
    11:00 +12°C° 0 mm 1 mps 657 mmHg 35%
    12:00 +13°C° 0 mm 1 mps 656 mmHg 34%
    13:00 +13°C° 0 mm 1 mps 656 mmHg 34%
    14:00 +14°C° 0 mm 2 mps 656 mmHg 33%
    15:00 +12°C° 0 mm 1 mps 655 mmHg 38%
    16:00 +11°C° 0 mm 1 mps 655 mmHg 44%
    17:00 +10°C° 0 mm 1 mps 655 mmHg 49%
    18:00 +10°C° 0 mm 1 mps 655 mmHg 50%
    19:00 +8°C° 0 mm 0 mps 655 mmHg 52%
    20:00 +8°C° 0 mm 0 mps 656 mmHg 53%
    21:00 +9°C° 0 mm 1 mps 656 mmHg 53%
    22:00 +9°C° 0 mm 1 mps 656 mmHg 52%
    23:00 +8°C° 0 mm 1 mps 656 mmHg 52%

    Day after tomorrow, 12 December, Thursday

    Time Temperature Precipitation Wind Pressure Humidity
    00:00 +7°C° 0 mm 2 mps 656 mmHg 51%
    01:00 +7°C° 0 mm 2 mps 656 mmHg 51%
    02:00 +7°C° 0 mm 2 mps 656 mmHg 50%
    03:00 +7°C° 0 mm 3 mps 655 mmHg 50%
    04:00 +7°C° 0 mm 3 mps 655 mmHg 50%
    05:00 +7°C° 0 mm 3 mps 654 mmHg 51%
    06:00 +7°C° 0 mm 3 mps 655 mmHg 53%
    07:00 +7°C° 0 mm 3 mps 655 mmHg 56%
    08:00 +8°C° 0 mm 3 mps 655 mmHg 59%
    09:00 +8°C° 0.1 mm 3 mps 655 mmHg 58%
    10:00 +9°C° 0.1 mm 3 mps 655 mmHg 56%
    11:00 +10°C° 0.1 mm 2 mps 655 mmHg 55%
    12:00 +9°C° 0.6 mm 2 mps 655 mmHg 62%
    13:00 +9°C° 0.6 mm 3 mps 654 mmHg 68%
    14:00 +8°C° 0.6 mm 3 mps 653 mmHg 75%
    15:00 +8°C° 0.4 mm 2 mps 653 mmHg 77%
    16:00 +7°C° 0.4 mm 2 mps 653 mmHg 79%
    17:00 +8°C° 0.4 mm 1 mps 653 mmHg 80%
    18:00 +8°C° 0.5 mm 1 mps 653 mmHg 83%
    19:00 +7°C° 0.5 mm 1 mps 653 mmHg 86%
    20:00 +7°C° 0.5 mm 1 mps 653 mmHg 89%
    21:00 +7°C° 1.2 mm 1 mps 653 mmHg 91%
    22:00 +6°C° 1.2 mm 1 mps 652 mmHg 93%
    23:00 +6°C° 1.2 mm 1 mps 652 mmHg 95%

    13 December, Friday

    Time Temperature Precipitation Wind Pressure Humidity
    00:00 +6°C° 1.2 mm 1 mps 652 mmHg 95%
    01:00 +6°C° 1.2 mm 1 mps 652 mmHg 94%
    02:00 +5°C° 1.2 mm 2 mps 652 mmHg 94%
    03:00 +4°C° 1.9 mm 2 mps 651 mmHg 95%
    04:00 +4°C° 1.9 mm 2 mps 651 mmHg 95%
    05:00 +4°C° 1.9 mm 2 mps 651 mmHg 96%
    06:00 +4°C° 0.8 mm 2 mps 651 mmHg 95%
    07:00 +4°C° 0.8 mm 2 mps 652 mmHg 93%
    08:00 +4°C° 0.8 mm 2 mps 652 mmHg 92%
    09:00 +6°C° 0.1 mm 1 mps 653 mmHg 89%
    10:00 +7°C° 0.1 mm 1 mps 653 mmHg 85%
    11:00 +7°C° 0.1 mm 1 mps 653 mmHg 82%
    12:00 +8°C° 0 mm 1 mps 653 mmHg 82%
    13:00 +8°C° 0 mm 1 mps 652 mmHg 82%
    14:00 +8°C° 0 mm 1 mps 652 mmHg 82%
    15:00 +8°C° 0.1 mm 1 mps 652 mmHg 84%
    16:00 +7°C° 0.1 mm 1 mps 652 mmHg 87%
    17:00 +7°C° 0.1 mm 1 mps 653 mmHg 89%
    18:00 +7°C° 0.2 mm 1 mps 653 mmHg 90%
    19:00 +7°C° 0.2 mm 1 mps 654 mmHg 91%
    20:00 +7°C° 0.2 mm 1 mps 655 mmHg 91%
    21:00 +7°C° 0.1 mm 1 mps 655 mmHg 91%
    22:00 +5°C° 0.1 mm 0 mps 656 mmHg 92%
    23:00 +5°C° 0.1 mm 0 mps 656 mmHg 92%

    14 December, Saturday

    Time Temperature Precipitation Wind Pressure Humidity
    00:00 +5°C° 0.1 mm 0 mps 657 mmHg 91%
    01:00 +5°C° 0.1 mm 0 mps 657 mmHg 89%
    02:00 +5°C° 0.1 mm 0 mps 657 mmHg 88%
    03:00 +5°C° 0.1 mm 0 mps 657 mmHg 87%
    04:00 +5°C° 0.1 mm 0 mps 657 mmHg 86%
    05:00 +5°C° 0.1 mm 0 mps 657 mmHg 85%
    06:00 +5°C° 0 mm 0 mps 658 mmHg 84%
    07:00 +5°C° 0 mm 0 mps 658 mmHg 83%
    08:00 +6°C° 0 mm 1 mps 659 mmHg 82%
    09:00 +6°C° 0.1 mm 1 mps 659 mmHg 80%
    10:00 +7°C° 0.1 mm 1 mps 659 mmHg 79%
    11:00 +8°C° 0.1 mm 1 mps 659 mmHg 77%
    12:00 +8°C° 0.1 mm 1 mps 659 mmHg 78%
    13:00 +8°C° 0.1 mm 1 mps 658 mmHg 79%
    14:00 +8°C° 0.1 mm 1 mps 658 mmHg 79%
    15:00 +8°C° 0.1 mm 1 mps 658 mmHg 82%
    16:00 +7°C° 0.1 mm 1 mps 658 mmHg 84%
    17:00 +6°C° 0.1 mm 0 mps 658 mmHg 86%
    18:00 +7°C° 0.1 mm 1 mps 658 mmHg 86%
    19:00 +7°C° 0.1 mm 1 mps 659 mmHg 86%
    20:00 +6°C° 0.1 mm 1 mps 659 mmHg 86%
    21:00 +6°C° 0 mm 1 mps 659 mmHg 83%
    22:00 +5°C° 0 mm 2 mps 659 mmHg 80%
    23:00 +5°C° 0 mm 2 mps 659 mmHg 77%

    15 December, Sunday

    Time Temperature Precipitation Wind Pressure Humidity
    00:00 +4°C° 0 mm 2 mps 659 mmHg 74%
    01:00 +4°C° 0 mm 2 mps 659 mmHg 71%
    02:00 +4°C° 0 mm 2 mps 659 mmHg 68%
    03:00 +4°C° 0 mm 2 mps 659 mmHg 66%
    04:00 +3°C° 0 mm 2 mps 658 mmHg 63%
    05:00 +3°C° 0 mm 2 mps 658 mmHg 61%
    06:00 +2°C° 0 mm 3 mps 658 mmHg 59%
    07:00 +2°C° 0 mm 3 mps 659 mmHg 57%
    08:00 +2°C° 0 mm 3 mps 659 mmHg 55%
    09:00 +5°C° 0 mm 2 mps 659 mmHg 50%
    10:00 +6°C° 0 mm 2 mps 659 mmHg 46%
    11:00 +9°C° 0 mm 1 mps 659 mmHg 41%
    12:00 +10°C° 0 mm 1 mps 658 mmHg 42%
    13:00 +10°C° 0 mm 1 mps 658 mmHg 42%
    14:00 +11°C° 0 mm 1 mps 657 mmHg 42%
    15:00 +9°C° 0 mm 1 mps 657 mmHg 47%
    16:00 +8°C° 0 mm 1 mps 657 mmHg 53%
    17:00 +7°C° 0 mm 1 mps 657 mmHg 58%
    18:00 +6°C° 0 mm 1 mps 657 mmHg 58%
    19:00 +6°C° 0 mm 1 mps 658 mmHg 59%
    20:00 +5°C° 0 mm 2 mps 658 mmHg 59%
    21:00 +4°C° 0 mm 2 mps 658 mmHg 57%
    22:00 +4°C° 0 mm 2 mps 658 mmHg 56%
    23:00 +3°C° 0 mm 3 mps 658 mmHg 54%
    Show more